ARIANE 5 R/B, 40942

Orbit data source: Space-Track

ARIANE 5 R/B, 40942 is space debris in HEO originally from a launch on Wed, 30 Sep 2015 UTC launched from the French Guiana (FRGUI). Debris objects in space refer to the collection of defunct objects orbiting the Earth. Examples of debris include non-operational satellites, rocket bodies, and fragments generated from explosions, collisions, or faulty payload assembly.

Loading next visibility...
Identifier
40942, 2015-054C
Orbit
HEO
Country
Flag of FRFR
Related business
Manufacturer
Airbus Safran
Mission
Spacecraft
Bus & Motor
ESC-A, Unknown motor
Mass
~5,000 kg wet, ~5,000 kg dry
Launch date (UTC)
2015-09-30 (10 years ago)
Launch vehicle
Unknown
Launch site
French Guiana (FRGUI)
Object type
Payload
Rocket body
Debris
Shape & HBR
Cyl + 1 Nozzle, 3.5 m
Radar Cross Section
41.627 m², Large (>1 m²)

Expand to show TLE details & history
Last TLE update: 13 hours ago

TLE from 13 hours ago
0 ARIANE 5 R/B
1 40942U 15054C   25343.32705786  .00027808 -22341-6  15233-2 0  9999
2 40942   6.2446 184.9291 6851247  48.6524 352.7660  2.87655101 93757
Epoch: 2025-12-09T07:50Z
TLE epoch observation values (Epoch: 2025-12-09T07:50:57.799Z)
Latitude
-0.00007°
Longitude
-11.16389°
Altitude
1,242.188 km
Speed
9.247 km/s
True Right ascension
12h 19m 33s
True Declination
0° 00' 00"
Sunlit
Object was in daylight at epoch
Visualization orbit readout
Latitude
Unknown
Longitude
Unknown
Altitude
Unknown
Speed
Unknown
Apparent Right ascension
Unknown
Apparent Declination
Unknown
Sunlit
N/A
Visualization observer readout
Local Sidereal Time
18:56:48
Azimuth
Unknown
Elevation
Unknown
Doppler factor
Unknown
Orbital elements
Apogee altitude
28,823.61 km
Perigee altitude
199.513 km
Semi-major axis
20,889.699 km
Eccentricity
0.68512
Inclination
6.2446°
RAAN
184.9291°
Arg. of periapsis
48.6524°
True anomaly
311.90961°
Mean anomaly
352.766°
Eccentric anomaly
338.16716°
Mean motion
0.71886 °/min
Orbital period
500.79 mins
BSTAR
0.0015233
Loading maneuver chart data...
Computing Atmospheric mass density...
Loading historical data...
Loading historical data...
Loading historical data...
Loading historical data...
Loading historical data...
Loading historical data...
Loading historical data...
Other satellites on launch #54 in the year 2015 (2015-09-30 UTC)

Documentation

Showing up to 5 results
|